| time (UTC) | temp F | wind direction | speed MPH | gust MPH | rain 1hr in | rain 24hr in | rain mn in | humidity % | barometer mb |
| 20260509131518 | 49 | 34 | 0.0 | 3.0 | 0.00 | 0.00 | 0.00 | 97 | 1014.6 |
| 20260509130016 | 49 | 65 | 2.0 | 4.0 | 0.00 | 0.00 | 0.00 | 97 | 1014.5 |
| 20260509124510 | 49 | 273 | 0.0 | 3.0 | 0.00 | 0.00 | 0.00 | 97 | 1014.3 |
| 20260509123010 | 49 | 323 | 0.0 | 0.0 | 0.00 | 0.00 | 0.00 | 97 | 1014.2 |
| 20260509121510 | 49 | 323 | 0.0 | 0.0 | 0.00 | 0.00 | 0.00 | 96 | 1014.3 |
| 20260509120013 | 49 | 323 | 1.0 | 3.0 | 0.00 | 0.00 | 0.00 | 96 | 1014.2 |
| 20260509114504 | 50 | 317 | 2.0 | 3.0 | 0.00 | 0.00 | 0.00 | 96 | 1014.4 |
| 20260509113002 | 50 | 313 | 0.0 | 3.0 | 0.00 | 0.00 | 0.00 | 96 | 1014.5 |
| 20260509111600 | 50 | 297 | 1.0 | 3.0 | 0.00 | 0.00 | 0.00 | 96 | 1014.5 |
| 20260509110100 | 50 | 297 | 0.0 | 3.0 | 0.00 | 0.00 | 0.00 | 96 | 1014.7 |
| 20260509104602 | 50 | 297 | 0.0 | 2.0 | 0.00 | 0.00 | 0.00 | 96 | 1014.7 |
| 20260509103057 | 51 | 297 | 0.0 | 0.0 | 0.00 | 0.00 | 0.00 | 96 | 1014.8 |
| 20260509101557 | 51 | 297 | 0.0 | 0.0 | 0.00 | 0.00 | 0.00 | 96 | 1014.8 |
| 20260509100108 | 51 | 297 | 0.0 | 0.0 | 0.00 | 0.00 | 0.00 | 95 | 1014.8 |
| 20260509094555 | 51 | 297 | 0.0 | 3.0 | 0.00 | 0.00 | 0.00 | 95 | 1014.8 |
| 20260509093054 | 51 | 297 | 0.0 | 3.0 | 0.00 | 0.00 | 0.00 | 95 | 1014.9 |
| 20260509091552 | 51 | 313 | 0.0 | 4.0 | 0.00 | 0.00 | 0.00 | 95 | 1014.8 |
| 20260509090052 | 51 | 313 | 1.0 | 4.0 | 0.00 | 0.00 | 0.00 | 95 | 1014.9 |
| 20260509084556 | 50 | 321 | 3.0 | 5.0 | 0.00 | 0.00 | 0.00 | 94 | 1015.1 |
| 20260509083050 | 50 | 292 | 2.0 | 4.0 | 0.00 | 0.00 | 0.00 | 94 | 1015.1 |
| 20260509081550 | 50 | 320 | 1.0 | 2.0 | 0.00 | 0.00 | 0.00 | 94 | 1015.2 |
| 20260509080108 | 51 | 15 | 0.0 | 0.0 | 0.00 | 0.00 | 0.00 | 93 | 1015.3 |
| 20260509074544 | 51 | 15 | 0.0 | 2.0 | 0.00 | 0.00 | 0.00 | 93 | 1015.2 |
| 20260509073130 | 52 | 15 | 2.0 | 4.0 | 0.00 | 0.00 | 0.00 | 94 | 1015.2 |
| 20260509071542 | 52 | 19 | 2.0 | 4.0 | 0.00 | 0.00 | 0.00 | 94 | 1015.3 |
| 20260509070039 | 52 | 58 | 3.0 | 7.0 | 0.00 | 0.00 | 0.00 | 94 | 1015.4 |
| 20260509064540 | 52 | 42 | 3.0 | 9.0 | 0.00 | 0.00 | 0.00 | 94 | 1015.5 |
| 20260509063039 | 52 | 58 | 4.0 | 9.0 | 0.00 | 0.00 | 0.00 | 94 | 1015.6 |
| 20260509061546 | 52 | 65 | 5.0 | 9.0 | 0.00 | 0.00 | 0.00 | 94 | 1015.7 |
| 20260509060039 | 52 | 43 | 4.0 | 7.0 | 0.00 | 0.00 | 0.00 | 94 | 1015.8 |
| 20260509054538 | 52 | 73 | 4.0 | 9.0 | 0.00 | 0.00 | 0.00 | 94 | 1016.0 |
| 20260509053034 | 53 | 36 | 4.0 | 9.0 | 0.00 | 0.00 | 0.00 | 94 | 1015.8 |
| 20260509051538 | 53 | 40 | 3.0 | 11.0 | 0.00 | 0.00 | 0.00 | 94 | 1015.8 |
| 20260509050038 | 53 | 46 | 5.0 | 10.0 | 0.00 | 0.00 | 0.00 | 93 | 1015.7 |
| 20260509044533 | 53 | 115 | 3.0 | 10.0 | 0.00 | 0.00 | 0.00 | 94 | 1015.7 |
| 20260509043042 | 53 | 73 | 3.0 | 10.0 | 0.00 | 0.00 | 0.00 | 93 | 1015.6 |
| 20260509041531 | 53 | 50 | 4.0 | 9.0 | 0.00 | 0.00 | 0.00 | 93 | 1015.5 |
| 20260509040032 | 53 | 98 | 5.0 | 10.0 | 0.00 | 0.00 | 0.00 | 93 | 1015.4 |
| 20260509034531 | 53 | 96 | 5.0 | 10.0 | 0.00 | 0.00 | 0.00 | 93 | 1015.3 |
| 20260509033030 | 53 | 69 | 6.0 | 12.0 | 0.00 | 0.00 | 0.00 | 92 | 1015.2 |
| 20260509031529 | 54 | 89 | 4.0 | 12.0 | 0.00 | 0.00 | 0.00 | 92 | 1015.1 |
| 20260509030036 | 54 | 100 | 3.0 | 12.0 | 0.00 | 0.00 | 0.00 | 91 | 1015.0 |
| 20260509024527 | 54 | 96 | 6.0 | 12.0 | 0.00 | 0.00 | 0.00 | 90 | 1014.8 |
| 20260509023027 | 55 | 53 | 5.0 | 13.0 | 0.00 | 0.00 | 0.00 | 90 | 1014.7 |
| 20260509021526 | 55 | 86 | 5.0 | 12.0 | 0.00 | 0.00 | 0.00 | 89 | 1014.6 |
| 20260509020025 | 56 | 69 | 6.0 | 13.0 | 0.00 | 0.00 | 0.00 | 88 | 1014.7 |
| 20260509014523 | 56 | 74 | 6.0 | 13.0 | 0.00 | 0.00 | 0.00 | 88 | 1014.7 |
| 20260509013042 | 56 | 63 | 7.0 | 15.0 | 0.00 | 0.00 | 0.00 | 87 | 1014.8 |
| 20260509011521 | 57 | 70 | 8.0 | 16.0 | 0.00 | 0.00 | 0.00 | 86 | 1014.7 |
| 20260509010025 | 57 | 63 | 7.0 | 14.0 | 0.00 | 0.00 | 0.00 | 85 | 1014.8 |
| 20260509004535 | 58 | 117 | 8.0 | 13.0 | 0.00 | 0.00 | 0.00 | 84 | 1014.8 |
| 20260509003017 | 58 | 92 | 8.0 | 15.0 | 0.00 | 0.00 | 0.00 | 83 | 1015.0 |
| 20260509001516 | 59 | 51 | 6.0 | 13.0 | 0.00 | 0.00 | 0.00 | 83 | 1015.2 |
| 20260509000014 | 58 | 83 | 8.0 | 15.0 | 0.00 | 0.00 | 0.00 | 83 | 1015.3 |
| 20260508234513 | 59 | 77 | 10.0 | 17.0 | 0.00 | 0.00 | 0.00 | 82 | 1015.4 |
| 20260508233011 | 59 | 124 | 11.0 | 18.0 | 0.00 | 0.00 | 0.00 | 81 | 1015.4 |
| 20260508231509 | 58 | 82 | 9.0 | 19.0 | 0.00 | 0.00 | 0.00 | 83 | 1015.7 |
| 20260508230023 | 59 | 78 | 9.0 | 17.0 | 0.00 | 0.00 | 0.00 | 81 | 1015.8 |
| 20260508224506 | 60 | 128 | 9.0 | 16.0 | 0.00 | 0.00 | 0.00 | 81 | 1016.0 |
| 20260508223006 | 59 | 111 | 11.0 | 17.0 | 0.00 | 0.00 | 0.00 | 81 | 1016.1 |
| 20260508221502 | 59 | 102 | 11.0 | 17.0 | 0.00 | 0.00 | 0.00 | 81 | 1016.3 |
| 20260508220109 | 60 | 111 | 9.0 | 15.0 | 0.00 | 0.00 | 0.00 | 80 | 1016.4 |
| 20260508214600 | 59 | 71 | 7.0 | 15.0 | 0.00 | 0.00 | 0.00 | 82 | 1016.6 |
| 20260508213057 | 59 | 101 | 7.0 | 15.0 | 0.00 | 0.00 | 0.00 | 83 | 1016.7 |
| 20260508211600 | 59 | 56 | 10.0 | 17.0 | 0.00 | 0.00 | 0.00 | 82 | 1016.8 |
| 20260508210113 | 59 | 105 | 7.0 | 15.0 | 0.00 | 0.00 | 0.00 | 81 | 1016.9 |
| 20260508204556 | 59 | 98 | 9.0 | 16.0 | 0.00 | 0.00 | 0.00 | 82 | 1016.9 |
| 20260508203054 | 59 | 99 | 8.0 | 15.0 | 0.00 | 0.00 | 0.00 | 81 | 1017.0 |
| 20260508201555 | 59 | 69 | 7.0 | 14.0 | 0.00 | 0.00 | 0.00 | 81 | 1017.0 |
| 20260508200057 | 59 | 53 | 10.0 | 20.0 | 0.00 | 0.00 | 0.00 | 79 | 1017.2 |
| 20260508194551 | 59 | 67 | 6.0 | 15.0 | 0.00 | 0.00 | 0.00 | 81 | 1017.1 |
| 20260508193054 | 59 | 136 | 9.0 | 15.0 | 0.00 | 0.00 | 0.00 | 80 | 1017.3 |
| 20260508191551 | 58 | 118 | 8.0 | 16.0 | 0.00 | 0.00 | 0.00 | 82 | 1017.4 |
| 20260508190059 | 58 | 110 | 8.0 | 19.0 | 0.00 | 0.00 | 0.00 | 82 | 1017.5 |
| 20260508184608 | 59 | 94 | 8.0 | 15.0 | 0.00 | 0.00 | 0.00 | 81 | 1017.6 |
| 20260508183047 | 59 | 103 | 7.0 | 12.0 | 0.00 | 0.00 | 0.00 | 83 | 1017.5 |
| 20260508181558 | 57 | 90 | 6.0 | 12.0 | 0.00 | 0.00 | 0.00 | 85 | 1017.7 |
| 20260508180045 | 57 | 111 | 6.0 | 12.0 | 0.00 | 0.00 | 0.00 | 84 | 1017.8 |
| 20260508174543 | 56 | 97 | 4.0 | 12.0 | 0.00 | 0.00 | 0.00 | 87 | 1017.7 |
| 20260508173041 | 56 | 78 | 8.0 | 13.0 | 0.00 | 0.00 | 0.00 | 86 | 1017.8 |
| 20260508171538 | 55 | 91 | 5.0 | 11.0 | 0.00 | 0.00 | 0.00 | 88 | 1017.9 |
| 20260508170040 | 55 | 98 | 6.0 | 11.0 | 0.00 | 0.00 | 0.00 | 89 | 1018.0 |
| 20260508164542 | 55 | 102 | 6.0 | 12.0 | 0.00 | 0.00 | 0.00 | 89 | 1018.0 |
| 20260508163035 | 55 | 143 | 8.0 | 15.0 | 0.00 | 0.00 | 0.00 | 88 | 1017.9 |
| 20260508161538 | 56 | 67 | 7.0 | 12.0 | 0.00 | 0.00 | 0.00 | 87 | 1017.8 |
| 20260508160032 | 56 | 115 | 6.0 | 9.0 | 0.00 | 0.00 | 0.00 | 90 | 1017.7 |
| 20260508154527 | 54 | 146 | 4.0 | 9.0 | 0.00 | 0.00 | 0.00 | 93 | 1017.8 |
| 20260508153026 | 53 | 34 | 3.0 | 7.0 | 0.00 | 0.00 | 0.00 | 94 | 1017.8 |
| 20260508151525 | 52 | 27 | 3.0 | 6.0 | 0.00 | 0.00 | 0.00 | 94 | 1017.8 |
| 20260508150024 | 52 | 59 | 3.0 | 7.0 | 0.00 | 0.00 | 0.00 | 95 | 1017.8 |
| 20260508144543 | 52 | 82 | 2.0 | 10.0 | 0.00 | 0.00 | 0.00 | 95 | 1017.9 |
| 20260508143023 | 51 | 103 | 5.0 | 10.0 | 0.00 | 0.00 | 0.00 | 95 | 1017.9 |
| 20260508141522 | 52 | 70 | 4.0 | 10.0 | 0.00 | 0.00 | 0.00 | 95 | 1017.8 |
| 20260508140022 | 51 | 80 | 5.0 | 10.0 | 0.00 | 0.00 | 0.00 | 95 | 1017.8 |
| 20260508134526 | 52 | 86 | 5.0 | 9.0 | 0.00 | 0.00 | 0.00 | 96 | 1017.7 |
| 20260508133023 | 52 | 70 | 5.0 | 11.0 | 0.00 | 0.00 | 0.00 | 96 | 1017.6 |